McGuire AFB, NJ

5:47 PM EDT on October 17, 2017 (GMT -0400)
McGuire Air Force Base

Weather History for KWRI - September, 2012

Change the Weather History Date:

Sunday, September 30, 2012

  Actual Average Record
Temperature  
Mean Temperature 60 °F -  
Max Temperature 69 °F 70 °F 79 °F (2011)
Min Temperature 52 °F 49 °F 37 °F (2000)
Degree Days  
Heating Degree Days 5    
Growing Degree Days 10 (Base 50)    
Moisture  
Dew Point 50 °F    
Average Humidity 73    
Maximum Humidity 93    
Minimum Humidity 47    
Precipitation  
Precipitation 0.00 in - - ()
Sea Level Pressure  
Sea Level Pressure 29.83 in    
Wind  
Wind Speed 4 mph (WNW)    
Max Wind Speed 15 mph    
Max Gust Speed -    
Visibility 10 miles    
Events Rain    
Averages and records for this station are not official NWS values.
T = Trace of Precipitation, MM = Missing Value Source: NWS Daily Summary

Daily Weather History Graph

Daily Weather History Graph

Search for Another Location

Airport or City:

Trip Planner

Search our weather history database for the weather conditions in past years. The results will help you decide how hot, cold, wet, or windy it might be!

Date:

Astronomy

Sep. 30, 2012 Rise Set
Actual Time 6:54 AM EDT 6:41 PM EDT
Civil Twilight 6:27 AM EDT 7:08 PM EDT
Nautical Twilight 5:55 AM EDT 7:39 PM EDT
Astronomical Twilight 5:23 AM EDT 8:11 PM EDT
Moon 6:44 PM EDT (9/30) 7:22 AM EDT (9/30)
Length of Visible Light 12h 41m
Length of Day
11h 47m
Full, 100% of the Moon is Illuminated
Sep 30
Full
Oct 8
Last Quarter
Oct 15
New
Oct 21
First Quarter
Oct 29
Full

Hourly Weather History & Observations

Time (EDT) Temp. Dew Point Humidity Pressure Visibility Wind Dir Wind Speed Gust Speed Precip Events Conditions
12:55 AM 54.9 °F 51.3 °F 88% 29.87 in 10.0 mi Calm Calm - N/A   Partly Cloudy
1:55 AM 53.4 °F 50.5 °F 90% 29.86 in 10.0 mi Calm Calm - N/A   Clear
2:55 AM 52.2 °F 49.8 °F 92% 29.84 in 10.0 mi Calm Calm - N/A   Clear
3:55 AM 52.0 °F 49.6 °F 92% 29.84 in 10.0 mi Calm Calm - N/A   Mostly Cloudy
4:55 AM 53.6 °F 50.9 °F 91% 29.85 in 10.0 mi WNW 4.6 mph - N/A   Overcast
5:55 AM 53.1 °F 50.5 °F 91% 29.85 in 10.0 mi NW 4.6 mph - N/A   Mostly Cloudy
6:55 AM 53.4 °F 50.9 °F 91% 29.85 in 10.0 mi WNW 4.6 mph - N/A   Overcast
7:55 AM 53.2 °F 51.3 °F 93% 29.86 in 5.0 mi WNW 3.5 mph - N/A   Clear
8:42 AM 57.2 °F 53.6 °F 88% 29.86 in 10.0 mi NW 5.8 mph - N/A Rain Light Rain
8:55 AM 58.5 °F 53.1 °F 82% 29.86 in 10.0 mi NNW 3.5 mph - 0.00 in Rain Light Rain
9:03 AM 59.0 °F 53.6 °F 82% 29.86 in 10.0 mi North 4.6 mph - N/A   Clear
9:55 AM 61.9 °F 53.4 °F 74% 29.85 in 10.0 mi Calm Calm - 0.00 in   Clear
10:55 AM 65.3 °F 52.2 °F 62% 29.83 in 10.0 mi WSW 3.5 mph - N/A   Clear
11:55 AM 67.8 °F 51.4 °F 56% 29.82 in 10.0 mi WNW 5.8 mph - N/A   Partly Cloudy
12:55 PM 68.5 °F 48.2 °F 48% 29.82 in 10.0 mi WSW 12.7 mph - N/A   Scattered Clouds
1:55 PM 68.9 °F 47.8 °F 47% 29.80 in 10.0 mi WNW 10.4 mph - N/A   Mostly Cloudy
2:55 PM 67.1 °F 48.7 °F 52% 29.80 in 10.0 mi NW 8.1 mph - N/A   Mostly Cloudy
3:55 PM 68.4 °F 49.5 °F 51% 29.78 in 10.0 mi West 13.8 mph - N/A   Partly Cloudy
4:55 PM 68.0 °F 47.8 °F 48% 29.78 in 10.0 mi West 15.0 mph - N/A   Partly Cloudy
5:55 PM 66.0 °F 48.2 °F 53% 29.78 in 10.0 mi West 5.8 mph - N/A   Scattered Clouds
6:55 PM 62.4 °F 48.4 °F 60% 29.80 in 10.0 mi WNW 4.6 mph - N/A   Overcast
7:55 PM 58.1 °F 51.1 °F 77% 29.81 in 10.0 mi West 3.5 mph - N/A   Mostly Cloudy
8:55 PM 60.1 °F 48.7 °F 66% 29.83 in 10.0 mi West 6.9 mph - N/A   Mostly Cloudy
9:55 PM 60.1 °F 46.9 °F 62% 29.85 in 10.0 mi West 8.1 mph - N/A   Overcast
10:55 PM 55.4 °F 48.6 °F 78% 29.85 in 10.0 mi SW 6.9 mph - N/A   Mostly Cloudy
11:55 PM 54.9 °F 48.7 °F 80% 29.85 in 10.0 mi West 4.6 mph - N/A   Clear